[[{"header":{"parameterUnit":"m.s-1","parameterCategory":1,"la1":30.2991,"la2":30.254,"lo1":-89.0895,"lo2":-89.0444,"dy":0.0017,"dx":0.0017,"nx":28,"ny":28,"refTime":"2024-05-21T09:00:00:Z","depth":0,"parameterNumber":2,"parameterNumberName":"U-component_of_WINDS"},"data":[0,0,0,0,0,0,0,0,0,0,0,0,0,0,0,0,0,0,0,0,0,0,0,0,0,0,0,0,0,0,0,0,0,0,0,0,0,0,0,0,0,0,0,0,0,0,0,0,0,0,0,0,0,0,0,0,0,0,-3.9284,-3.9285,0,-3.9377,-3.9378,-3.9379,-3.9344,-3.9342,-3.934,-3.9338,-3.9433,-3.9438,-3.9442,0,0,0,0,0,0,0,0,0,0,0,0,0,-3.9081,-3.9085,-3.9284,-3.9285,-3.9287,-3.9376,-3.9378,-3.9379,-3.9345,-3.9342,-3.9339,-3.9337,-3.9432,-3.9437,-3.9443,0,0,0,0,0,0,0,0,0,0,0,0,0,-3.9171,-3.9086,-3.9284,-3.928,-3.9281,-3.9376,-3.9378,-3.9379,-3.9345,-3.9342,-3.9339,-3.9336,-3.943,-3.9437,-3.9443,-3.9548,0,0,-3.9464,-3.9467,0,0,0,0,0,0,0,0,-3.9166,-3.9178,-3.928,-3.9281,-3.9282,-3.9346,-3.9341,-3.9436,-3.9346,-3.9321,-3.9338,-3.9334,-3.9407,-3.9415,-3.9439,-3.9553,-3.9557,-3.9465,-3.9469,-3.9471,-3.9473,0,0,0,0,0,0,0,-3.916,-3.9174,-3.9321,-3.9281,-3.9282,-3.9275,-3.9284,-3.9359,-3.938,-3.9323,-3.932,-3.9332,-3.9407,-3.9433,-3.9441,-3.9558,-3.9464,-3.947,-3.9474,-3.9477,-3.9764,-3.9768,0,0,0,0,0,0,-3.9153,-3.9169,-3.9318,-3.9324,-3.9215,-3.9281,-3.9291,-3.9328,-3.9379,-3.9384,-3.9334,-3.933,-3.9423,-3.9434,-3.9445,-3.9572,-3.9471,-3.9478,-3.9482,-3.9761,-3.9765,-3.9769,0,0,0,0,0,0,-3.9149,-3.9166,-3.9314,-3.9246,-3.9264,-3.9288,-3.933,-3.9332,-3.9358,-3.9388,-3.9392,-3.9357,-3.9421,-3.9435,-3.9523,-3.9574,-3.9481,-3.9487,-3.9757,-3.9762,-3.9767,-3.9826,0,0,0,0,0,0,-3.9143,-3.9165,-3.9204,-3.9247,-3.9268,-3.939,-3.9333,-3.9336,-3.937,-3.9365,-3.9411,-3.9415,-3.942,-3.9513,-3.953,-3.9582,-3.9492,-3.9752,-3.9759,-3.9765,-3.9819,-3.9832,-3.9844,0,0,0,0,0,-3.9136,-3.9217,-3.9206,-3.9225,-3.9317,-3.9393,-3.9405,-3.9408,-3.9374,-3.9414,-3.9434,-3.9414,-3.9567,-3.9523,-3.9541,-3.9596,-3.9749,-3.9757,-3.9765,-3.9814,-3.983,-3.9843,0,0,0,0,0,0,-3.9179,-3.9222,-3.9211,-3.9308,-3.9348,-3.9387,-3.9437,-3.9425,-3.9475,-3.9468,-3.947,-3.9481,-3.9572,-3.9593,-3.9543,-3.9701,-3.9653,-3.9665,-3.9683,-3.9699,-3.9711,-3.9703,-3.9498,0,0,0,0,0,-3.92,-3.9257,-3.9292,-3.9375,-3.9395,-3.9413,-3.9446,-3.9446,-3.9486,-3.9503,-3.9529,-3.957,-3.9627,-3.9664,-3.9719,-3.9823,-3.9833,-3.987,-3.9882,-3.9892,-3.9902,-3.996,-3.9977,-3.9795,-3.9795,-3.9795,0,0,-3.9243,-3.9274,-3.931,-3.9384,-3.9414,-3.9475,-3.9427,-3.9493,-3.9538,-3.9513,-3.9597,-3.9619,-3.9664,-3.9761,-3.9805,-3.9782,-3.9955,-3.9903,-3.991,-3.9915,-3.997,-3.9988,-4.0003,-3.9801,-3.98,-3.9799,0,0,-3.9353,-3.9382,-3.9454,-3.9486,-3.9533,-3.9545,-3.9563,-3.9605,-3.9618,-3.9704,-3.9687,-3.9741,-3.9839,-3.9873,-3.9903,-4.003,-4.0013,-4.0048,-4.0111,-4.0167,-4.0182,-4.0194,-4.024,-4.0256,-4.0058,-4.0058,-4.0058,0,-3.9401,-3.949,-3.9493,-3.9561,-3.9594,-3.9576,-3.965,-3.9681,-3.9743,-3.9767,-3.974,-3.9865,-3.9894,-3.9999,-4.0031,-4.0056,-4.0076,-4.0041,-4.0179,-4.0192,-4.0204,-4.0247,-4.0264,-4.0062,-4.0061,-4.0061,-4.0061,0,-3.9547,-3.961,-3.9663,-3.9724,-3.9764,-3.9834,-3.9849,-3.989,-3.9887,-3.9902,-3.999,-4.0026,-4.0087,-4.0113,-4.011,-4.0219,-4.0203,-4.0178,-4.0129,-4.0225,-4.0266,-4.0282,-4.0067,-4.0066,-4.0065,-4.0064,0,0,-3.9684,-3.9747,-3.9767,-3.9795,-3.9847,-3.9895,-3.9966,-4.0027,-4.0062,-4.0107,-4.0166,-4.0252,-4.023,-4.0264,-4.0266,-4.0316,-4.0415,-4.0285,-4.0286,-4.0307,-4.0537,-4.0555,-4.0574,-4.0405,-4.0408,-4.0411,-4.0533,0,-3.9797,-3.992,-3.9926,-4.0038,-4.0097,-4.0082,-4.0144,-4.0183,-4.0201,-4.0254,-4.0273,-4.0334,-4.03,-4.0321,-4.037,-4.0392,-4.0461,-4.0384,-4.0461,-4.0464,-4.0448,-4.0595,-4.0613,-4.0727,-4.0549,-4.0552,-4.0554,0,-3.9945,-3.9994,-4.0113,-4.0158,-4.0183,-4.0238,-4.0295,-4.0346,-4.0391,-4.0401,-4.0441,-4.0436,-4.051,-4.046,-4.0563,-4.0511,-4.0543,-4.056,-4.0564,-4.057,-4.0513,-4.0604,-4.0763,-4.078,-4.0579,-4.0577,-4.0575,0,-4.0032,-4.0129,-4.0212,-4.0237,-4.0292,-4.0331,-4.0356,-4.0398,-4.0435,-4.0486,-4.051,-4.0569,-4.0601,-4.0648,-4.066,-4.0623,-4.0763,-4.0714,-4.0773,-4.0773,-4.0801,-4.0799,-4.0967,-4.0825,-4.0825,-4.0824,-4.0824,0,-4.0157,-4.023,-4.0252,-4.0303,-4.0385,-4.0393,-4.0474,-4.0497,-4.0535,-4.0591,-4.0583,-4.0636,-4.065,-4.0706,-4.0716,-4.08,-4.0815,-4.0825,-4.0827,-4.0825,-4.0824,-4.0845,-4.0838,-4.0829,-4.0828,-4.0827,-4.0826,0,-4.0267,-4.0285,-4.0375,-4.0421,-4.0434,-4.0492,-4.0532,-4.0582,-4.0599,-4.0671,-4.0688,-4.0716,-4.0782,-4.08,-4.0879,-4.0886,-4.0985,-4.0979,-4.0969,-4.0969,-4.1027,-4.1021,-4.1213,-4.1239,-4.1081,-4.1082,-4.1083,0,-4.0345,-4.0401,-4.0453,-4.049,-4.0517,-4.0577,-4.0614,-4.0626,-4.0666,-4.0723,-4.0767,-4.0832,-4.0884,-4.0991,-4.1019,-4.108,-4.1076,-4.1139,-4.1085,-4.1082,-4.1076,-4.1073,-4.1079,-4.1149,-4.115,-4.1152,-4.1153,0,-4.0482,-4.0489,-4.0543,-4.0602,-4.0648,-4.0694,-4.0739,-4.077,-4.0788,-4.0834,-4.0902,-4.0943,-4.1024,-4.109,-4.1152,-4.1179,-4.117,-4.117,-4.1187,-4.1185,-4.1177,-4.1182,-4.0996,-4.1165,-4.1164,-4.1163,-4.1162,-4.1162,-4.0578,-4.0627,-4.0672,-4.0734,-4.0769,-4.0812,-4.0862,-4.0886,-4.0942,-4.1009,-4.1013,-4.1087,-4.1133,-4.1216,-4.1247,-4.1306,-4.1287,-4.1311,-4.1317,-4.1323,-4.1328,-4.1169,-4.1317,-4.1317,-4.1317,-4.1316,-4.1316,0,-4.0714,-4.0742,-4.0799,-4.0863,-4.0912,-4.09,-4.095,-4.0992,-4.1056,-4.1101,-4.1153,-4.1232,-4.1296,-4.133,-4.1394,-4.1435,-4.1432,-4.1451,-4.1448,-4.1455,-4.1341,-4.132,-4.1452,-4.1452,-4.1452,-4.1452,-4.1452,-4.1452,-4.079,-4.0873,-4.0886,-4.0987,-4.1016,-4.1087,-4.1117,-4.1157,-4.1193,-4.1281,-4.1334,-4.1356,-4.1397,-4.1464,-4.1523,-4.1532,-4.1556,-4.1577,-4.1583,-4.1476,-4.1462,-4.1449,-4.1429,-4.1582,-4.1582,-4.1692,-4.1693,-4.1693]},{"header":{"parameterUnit":"m.s-1","parameterCategory":1,"la1":30.2991,"la2":30.254,"lo1":-89.0895,"lo2":-89.0444,"dy":0.0017,"dx":0.0017,"nx":28,"ny":28,"refTime":"2024-05-21T09:00:00:Z","depth":0,"parameterNumber":3,"parameterNumberName":"V-component_of_WINDS"},"data":[0,0,0,0,0,0,0,0,0,0,0,0,0,0,0,0,0,0,0,0,0,0,0,0,0,0,0,0,0,0,0,0,0,0,0,0,0,0,0,0,0,0,0,0,0,0,0,0,0,0,0,0,0,0,0,0,0,0,3.4508,3.4509,0,3.462,3.4621,3.4622,3.4664,3.4664,3.4663,3.4663,3.4773,3.4776,3.4779,0,0,0,0,0,0,0,0,0,0,0,0,0,3.4327,3.433,3.4508,3.4509,3.4511,3.462,3.4621,3.4623,3.4664,3.4663,3.4663,3.4663,3.4772,3.4775,3.4779,0,0,0,0,0,0,0,0,0,0,0,0,0,3.4419,3.4331,3.4508,3.4545,3.4549,3.4619,3.4621,3.4623,3.4664,3.4663,3.4663,3.4662,3.477,3.4775,3.478,3.482,0,0,3.4795,3.4797,0,0,0,0,0,0,0,0,3.4414,3.4425,3.4538,3.4542,3.4547,3.4628,3.4598,3.4689,3.4664,3.462,3.4663,3.4662,3.4724,3.4733,3.4755,3.4825,3.483,3.4795,3.4798,3.48,3.4802,0,0,0,0,0,0,0,3.4407,3.4421,3.4552,3.4539,3.4545,3.4555,3.4567,3.4615,3.4674,3.4624,3.4627,3.464,3.4727,3.475,3.4758,3.4832,3.4795,3.4799,3.4802,3.4804,3.4943,3.4943,0,0,0,0,0,0,3.4395,3.4415,3.4549,3.4555,3.4478,3.4558,3.4572,3.4602,3.4673,3.4684,3.4641,3.4642,3.4742,3.4752,3.4762,3.4815,3.48,3.4805,3.4807,3.4942,3.4943,3.4944,0,0,0,0,0,0,3.4391,3.4407,3.4544,3.4486,3.4505,3.4562,3.4595,3.4605,3.4628,3.4686,3.4696,3.4654,3.4742,3.4755,3.4806,3.4819,3.4807,3.4811,3.4941,3.4942,3.4943,3.4921,0,0,0,0,0,0,3.4386,3.4405,3.4422,3.4487,3.4508,3.4587,3.4596,3.4607,3.4637,3.464,3.4701,3.4711,3.4743,3.4799,3.4811,3.4826,3.4815,3.494,3.4941,3.4943,3.4921,3.4921,3.4921,0,0,0,0,0,3.4379,3.4409,3.4422,3.4438,3.453,3.4588,3.46,3.4637,3.4638,3.4655,3.4692,3.4709,3.4816,3.4804,3.4818,3.4834,3.4939,3.4941,3.4943,3.492,3.4921,3.4921,0,0,0,0,0,0,3.4342,3.4419,3.4434,3.4486,3.453,3.4595,3.4617,3.4636,3.468,3.4681,3.4724,3.4738,3.4786,3.4815,3.48,3.4878,3.4879,3.4883,3.4857,3.4858,3.4858,3.485,3.4819,0,0,0,0,0,3.4341,3.4383,3.4447,3.4487,3.4509,3.4559,3.4586,3.4611,3.4658,3.4677,3.4718,3.4762,3.4806,3.4833,3.4877,3.4925,3.4939,3.4944,3.4944,3.4944,3.4947,3.4976,3.4979,3.4949,3.4949,3.4949,0,0,3.4337,3.4384,3.4407,3.4481,3.4518,3.456,3.4574,3.4618,3.4649,3.4683,3.4734,3.4766,3.4818,3.4869,3.4893,3.4894,3.4959,3.4946,3.4946,3.4949,3.4978,3.4981,3.4983,3.495,3.495,3.495,0,0,3.4352,3.4391,3.443,3.4468,3.4525,3.4559,3.4568,3.463,3.4654,3.4706,3.4733,3.477,3.4845,3.4881,3.4909,3.494,3.4957,3.4953,3.4955,3.4982,3.4985,3.4987,3.4999,3.5002,3.4956,3.4956,3.4956,0,3.4339,3.4405,3.4446,3.449,3.4521,3.4556,3.4595,3.4629,3.4697,3.4717,3.4719,3.4815,3.4852,3.4912,3.492,3.4941,3.4953,3.4946,3.4981,3.4984,3.4987,3.4998,3.5002,3.4955,3.4955,3.4956,3.4956,0,3.4387,3.4432,3.4456,3.4523,3.4558,3.4598,3.4645,3.4675,3.4698,3.4731,3.4785,3.4831,3.4885,3.4902,3.4923,3.4965,3.4965,3.4973,3.4975,3.4988,3.5,3.5004,3.4954,3.4954,3.4955,3.4955,0,0,3.438,3.4472,3.448,3.4511,3.4578,3.4614,3.4656,3.4711,3.4735,3.4781,3.4818,3.4881,3.489,3.4922,3.4949,3.4973,3.4995,3.4979,3.4981,3.4981,3.5045,3.5038,3.5042,3.5008,3.5009,3.5009,3.5041,0,3.4404,3.4483,3.4523,3.4584,3.4626,3.4661,3.4698,3.4742,3.4775,3.4815,3.4851,3.4895,3.4904,3.4924,3.4949,3.4987,3.5009,3.4986,3.5041,3.5043,3.5027,3.5048,3.5041,3.5068,3.5045,3.5046,3.5047,0,3.4442,3.449,3.4556,3.462,3.4639,3.4672,3.4726,3.4764,3.4816,3.4838,3.4875,3.4901,3.4947,3.4946,3.5009,3.4992,3.5017,3.5039,3.5041,3.5048,3.5045,3.5055,3.5077,3.5081,3.5054,3.5053,3.5053,0,3.4431,3.4512,3.4563,3.4589,3.4664,3.4686,3.4718,3.4769,3.48,3.4848,3.4868,3.4919,3.4947,3.4985,3.5024,3.502,3.5084,3.5086,3.5103,3.5102,3.5114,3.5113,3.5141,3.5131,3.5131,3.513,3.513,0,3.4453,3.4492,3.4559,3.459,3.4635,3.468,3.4723,3.4758,3.4803,3.4841,3.4874,3.4908,3.4958,3.4999,3.5029,3.5077,3.5089,3.5108,3.5116,3.5105,3.5103,3.5122,3.5121,3.5132,3.5131,3.5131,3.5131,0,3.4448,3.4495,3.4552,3.462,3.4638,3.4668,3.4725,3.4756,3.4791,3.4839,3.4853,3.4907,3.4957,3.5,3.5065,3.5086,3.5135,3.5145,3.5118,3.5122,3.5137,3.5135,3.5178,3.5186,3.517,3.517,3.5171,0,3.4459,3.4491,3.4563,3.4591,3.4624,3.4669,3.4701,3.4747,3.4779,3.4842,3.4865,3.4918,3.4962,3.504,3.5085,3.5135,3.5146,3.5157,3.5153,3.5142,3.5146,3.5144,3.5147,3.5157,3.5157,3.5157,3.5157,0,3.4475,3.4497,3.4543,3.4598,3.4637,3.4681,3.4727,3.4748,3.4803,3.4837,3.489,3.4924,3.4992,3.5044,3.51,3.5132,3.5153,3.5158,3.5165,3.5154,3.5138,3.5147,3.5118,3.5157,3.5157,3.5157,3.5157,3.5157,3.4478,3.4508,3.4564,3.4615,3.4655,3.4697,3.4731,3.4771,3.4816,3.4876,3.49,3.4954,3.5005,3.5082,3.5115,3.5157,3.516,3.5169,3.5172,3.5173,3.5172,3.5132,3.5167,3.5167,3.5167,3.5167,3.5167,0,3.4496,3.4534,3.458,3.4645,3.4685,3.4704,3.4756,3.4788,3.4835,3.4882,3.4926,3.4987,3.5038,3.5087,3.514,3.5164,3.5176,3.5177,3.5175,3.5182,3.5166,3.5155,3.5167,3.5167,3.5167,3.5167,3.5167,3.5167,3.4509,3.4562,3.459,3.4662,3.47,3.4754,3.4782,3.4822,3.486,3.4927,3.497,3.5003,3.5051,3.5108,3.5156,3.5169,3.5187,3.5185,3.5201,3.5184,3.5183,3.5183,3.5173,3.5189,3.5189,3.5215,3.5215,3.5215]}]]